AirNav   Air Wisconsin pilot careers
 
 1463 users online  

66KY Mc Grew Airport
Clarkson, Kentucky, USA

GOING TO CLARKSON?


FAA INFORMATION EFFECTIVE 08 NOVEMBER 2018

Location

FAA Identifier: 66KY
Lat/Long: 37-30-27.2010N / 086-12-19.8990W
37-30.453350N / 086-12.331650W
37.5075558 / -86.2055275
(estimated)
Elevation: 720 ft. / 219 m (estimated)
Variation: 01W (1985)
From city: 1 mile NE of CLARKSON, KY
Time zone: UTC -6 (UTC -5 during Daylight Saving Time)
Zip code: 42726

Airport Operations

Airport use: Private use. Permission required prior to landing
Activation date: 08/1985
Control tower: no
ARTCC: INDIANAPOLIS CENTER
FSS: LOUISVILLE FLIGHT SERVICE STATION
Attendance: UNATNDD
Wind indicator: yes
Segmented circle: no

Airport Communications

WX AWOS-3 at EKX (17 nm NE): 121.025 (270-763-6433)

Nearby radio navigation aids

VOR radial/distance  VOR name  Freq  Var
MYSr176/(23.3)MYSTIC VOR108.2001W
EWOr253/26.3NEW HOPE VOR/DME110.8001E
FTKr206/26.4FORT KNOX VOR/DME109.6001W
BWGr016/36.5BOWLING GREEN VORTAC117.9002E

 
NDB name  Hdg/Dist  Freq  Var  ID
GODMAN205/29.239603WGOI --. --- ..

Airport Services

Runway Information

Runway 10/28

Dimensions: 2400 x 150 ft. / 732 x 46 m
Surface: turf
RUNWAY 10  RUNWAY 28
Traffic pattern: leftleft
Obstructions: 30 ft. trees30 ft. trees

Airport Ownership and Management from official FAA records

Ownership: Privately-owned
Owner: ROBERT MC GREW
RT 3, BOX 186
CLARKSON, KY 42726
Phone 502-242-7378

Airport Operational Statistics

Aircraft based on the field: 6
Single engine airplanes: 4
Ultralights: 2
    

Instrument Procedures

There are no published instrument procedures at 66KY.

Some nearby airports with instrument procedures:

KEKX - Addington Field Airport (17 nm NE)
KFTK - Godman Army Airfield (26 nm NE)
KJQD - Ohio County Airport (31 nm W)
KGLW - Glasgow Municipal Airport (31 nm SE)
KBWG - Bowling Green-Warren County Regional Airport (34 nm S)
 
Loc | Ops | Rwys | IFR | FBO | Links
Com | Nav | Svcs | Stats | Notes


 
Area around 66KY (Mc Grew Airport)
 
Road maps at: MapQuest Bing Google
 
Aerial photo
No photo
 
Sectional chart

 
Airport distance calculator
Flying to Mc Grew Airport? Find the distance to fly.

From to 66KY

Sunrise and sunset
Times for 19-Nov-2018
 Local
(UTC-6)
 Zulu
(UTC)
Morning civil twilight06:0212:02
Sunrise06:3012:30
Sunset16:3122:31
Evening civil twilight16:5922:59

Current date and time
Zulu (UTC)  19-Nov-2018 17:56:45
Local (UTC-6)  19-Nov-2018 11:56:45
 
METAR
KEKX 
20nm NE 
191735Z AUTO 27005KT 3SM BR OVC006 07/07 A3004 RMK AO2 T00720072
KFTK 
25nm NE 
191656Z 24005KT 2SM BR BKN005 OVC015 08/07 A3004 RMK AO2A SLP178 P0000 T00790071 $
KGLW 
31nm SE 
191735Z AUTO 25014G18KT 10SM OVC020 11/07 A3004 RMK AO2 T01130070
KBWG 
34nm S 
191653Z AUTO 26007KT 10SM OVC009 11/08 A3007 RMK AO2 CIG 008V013 SLP183 T01060083
KBRY 
38nm NE 
191735Z AUTO 26005KT 3SM OVC006 07/07 A3002 RMK AO1
TAF
KFTK 
25nm NE 
191535Z 1915/2015 VRB06KT 9999 BKN008 OVC015 QNH3004INS BECMG 1915/1917 27006KT 9000 -DZ OVC008 QNH3000INS BECMG 1917/1918 28009KT 9000 -DZ BKN015 OVC025 QNH3000INS BECMG 2004/2005 28009KT 9999 NSW OVC009 620152 QNH3014INS TX11/1918Z TN01/2009Z
NOTAMs
Click for the latest NOTAMs
NOTAMs are issued by the DoD/FAA and will open in a separate window not controlled by AirNav.

 

 
 

Would you like to see your business listed on this page?

 If your business provides an interesting product or service to pilots, flight crews, aircraft, or users of the Mc Grew Airport, you should consider listing it here.  To start the listing process, click on the button below
 
Add a business
 

Other Pages about Mc Grew Airport

Update a link
 
Copyright © AirNav, LLC. All rights reserved. Privacy Policy  Contact